Date,TemperatureHighF,TemperatureAvgF,TemperatureLowF,DewpointHighF,DewpointAvgF,DewpointLowF,HumidityHigh,HumidityAvg,HumidityLow,PressureMaxIn,PressureMinIn,WindSpeedMaxMPH,WindSpeedAvgMPH,GustSpeedMaxMPH,PrecipitationSumIn
2013-1-14,50,43,37,31,28,26,65,57,47,30.00,29.89,2,1,6,1.49
2013-1-15,32,28,25,24,22,21,84,79,73,30.07,29.97,2,1,5,0.00
2013-1-16,35,33,32,33,31,29,94,92,85,29.75,29.59,4,2,11,0.25
2013-1-17,33,32,31,28,27,26,84,81,78,30.81,29.71,4,1,7,0.00
2013-1-18,38,33,19,26,14,6,83,46,37,30.51,30.18,10,3,16,0.00
2013-1-19,57,49,31,20,16,12,52,29,19,30.29,30.04,8,6,19,0.00
2013-1-20,46,40,36,30,18,11,57,40,33,30.10,29.85,10,7,25,0.02
2013-1-21,29,25,21,18,15,12,79,66,53,30.13,29.93,9,3,25,0.00
2013-1-22,12,8,6,2,-2,-4,76,63,58,30.24,30.07,6,4,19,0.00
2013-1-23,18,12,4,9,1,-2,81,62,45,30.31,30.09,4,2,12,0.00
2013-1-24,14,14,13,10,9,8,86,83,80,30.32,30.07,3,1,7,0.00
2013-1-25,20,15,11,14,8,1,81,71,61,30.51,30.08,2,0,4,0.00
2013-1-26,28,24,18,22,19,15,88,82,73,30.24,30.11,3,1,8,0.00
2013-1-27,49,27,10,21,15,7,87,64,28,30.54,30.34,2,0,4,0.13
2013-1-28,46,40,32,44,38,20,94,91,62,30.32,30.06,8,3,14,0.26
2013-1-29,68,55,50,55,51,49,97,88,61,30.11,29.92,20,4,42,0.01
2013-1-30,63,63,63,51,51,51,65,65,65,29.65,29.59,3,3,5,0.01
2013-1-31,31,26,22,22,17,12,86,67,53,30.20,29.92,9,5,27,0.86
2013-2-1,22,17,14,18,10,6,85,73,64,30.40,30.16,8,5,14,0.00
2013-2-2,24,19,8,21,12,1,91,75,65,30.65,30.31,7,4,16,0.00
2013-2-3,29,25,21,24,20,14,91,82,71,30.30,30.16,7,2,15,0.00
2013-2-4,31,22,17,21,16,10,87,77,54,30.41,30.22,4,2,8,0.00
2013-2-5,34,29,27,29,26,24,92,88,79,30.30,30.17,3,1,6,0.00
2013-2-6,40,31,27,26,22,17,92,70,45,30.63,30.29,5,2,12,0.02
2013-2-7,50,38,16,29,24,12,85,61,44,30.64,30.43,4,1,9,0.12
2013-2-8,40,34,26,36,30,21,92,84,72,30.47,30.16,10,2,19,0.14
2013-2-9,43,29,22,20,17,15,80,63,38,30.72,30.48,4,1,11,0.00
2013-2-10,62,42,16,25,18,11,81,45,18,31.23,30.46,3,1,6,0.00
2013-2-11,65,59,39,48,36,26,90,45,25,30.33,30.02,13,7,27,0.06
2013-2-12,50,41,34,28,25,23,67,55,39,30.42,30.26,9,4,17,0.00
2013-2-13,43,35,28,30,28,23,92,77,55,30.19,30.03,2,0,2,0.00
2013-2-14,43,35,27,33,29,24,90,79,64,30.32,30.21,7,3,16,0.20
2013-2-15,41,38,32,33,29,25,86,70,56,30.39,30.26,6,3,13,0.00
2013-2-16,43,30,23,26,18,13,88,64,41,30.39,30.27,4,1,9,0.08
2013-2-17,24,18,16,18,14,11,87,81,63,30.39,30.24,6,3,15,0.00
2013-2-18,47,31,9,22,12,2,76,48,32,30.63,30.41,5,3,11,0.00
2013-2-19,44,39,32,38,32,24,86,76,48,30.24,30.03,11,6,24,0.17
2013-2-20,24,20,18,17,11,8,85,70,57,30.54,30.29,8,5,22,0.00
2013-2-21,37,24,18,17,14,11,80,65,39,30.66,30.51,5,3,13,0.00
2013-2-22,38,33,21,33,27,13,90,78,53,30.60,30.34,7,3,15,0.01
2013-2-23,54,40,33,40,33,28,85,77,57,30.34,30.21,2,0,6,0.00
2013-2-24,32,30,28,29,23,21,88,75,70,30.36,30.21,6,3,15,0.00
2013-2-25,44,31,23,28,23,19,85,74,51,30.57,30.48,1,0,3,0.00
2013-2-26,41,37,33,35,27,20,90,68,49,30.41,29.95,8,3,13,0.69
2013-2-27,43,39,34,39,36,31,94,88,75,30.04,29.93,7,2,15,0.22
2013-2-28,34,32,32,31,29,28,90,87,85,30.02,29.99,2,0,5,0.00
2013-3-1,32,30,30,30,27,26,91,85,77,30.25,30.15,2,0,7,0.00
2013-3-2,30,26,25,22,20,18,87,77,67,30.30,30.24,4,1,8,0.00
2013-3-3,28,26,23,22,19,16,88,75,64,30.34,30.25,8,4,14,0.00
2013-3-4,43,29,21,22,17,12,85,63,37,30.45,30.34,7,3,14,0.00
2013-3-5,55,36,19,27,17,12,84,53,19,30.43,30.05,8,1,12,0.00
2013-3-6,49,37,31,34,29,26,92,74,48,30.44,30.04,5,1,9,0.20
2013-3-7,46,39,33,31,28,25,86,67,49,30.57,30.44,5,3,13,0.00
2013-3-8,40,33,28,28,26,23,84,74,60,30.73,30.60,6,2,11,0.00
2013-3-9,70,48,22,33,27,20,91,52,18,30.74,30.58,2,0,4,0.00
2013-3-10,76,58,44,31,26,20,39,30,17,30.53,30.37,9,3,14,0.00
2013-3-11,65,57,51,48,33,27,87,42,26,30.37,30.08,13,5,21,0.07
2013-3-12,51,39,37,48,32,26,90,76,64,30.34,30.13,5,3,16,0.21
2013-3-13,40,33,27,30,25,17,90,74,47,30.46,30.27,9,5,24,0.04
2013-3-14,41,29,25,19,17,15,73,61,36,30.54,30.46,10,5,22,0.00
2013-3-15,36,29,26,22,20,17,72,66,56,30.48,30.34,4,3,11,0.00
2013-3-16,41,37,34,38,34,31,92,89,79,30.30,29.99,4,1,8,0.04
2013-3-17,34,30,28,31,23,22,89,76,67,30.50,30.31,4,0,6,0.00
2013-3-18,42,34,30,36,29,21,90,81,61,30.50,30.06,9,5,19,0.37
2013-3-19,49,41,35,41,26,16,94,55,31,30.25,30.05,12,6,34,0.09
2013-3-20,41,32,26,20,17,15,65,53,36,30.32,30.16,9,3,15,0.00
2013-3-21,30,25,18,18,9,6,84,51,40,30.24,30.19,8,4,16,0.00
2013-3-22,38,30,25,20,18,17,80,63,45,30.36,30.23,8,4,19,0.00
2013-3-23,54,40,19,26,21,14,85,51,26,30.38,30.32,5,2,12,0.00
2013-3-24,44,34,26,29,22,18,88,64,40,30.34,29.89,8,1,10,0.00
2013-3-25,38,33,30,34,31,27,95,91,76,30.08,29.82,5,2,10,0.37
2013-3-26,47,39,31,33,30,28,94,72,53,30.41,30.09,6,3,14,0.06
2013-3-27,44,37,32,32,28,23,93,72,47,30.48,30.40,8,4,18,0.07
2013-3-28,44,38,33,31,29,27,89,70,54,30.60,30.47,7,3,13,0.01
2013-3-29,59,46,35,36,28,19,81,51,23,30.61,30.50,5,2,13,0.00
2013-3-30,65,42,27,29,22,16,77,51,19,30.60,30.40,3,1,6,0.00
2013-3-31,53,48,43,46,38,19,90,72,36,30.38,30.09,5,2,12,0.12
2013-4-1,47,41,33,42,29,12,89,63,27,30.28,30.08,8,4,19,0.05
2013-4-2,43,34,27,20,14,11,74,47,28,30.52,30.36,7,3,14,0.00
2013-4-3,43,33,26,20,12,7,65,44,23,30.74,30.52,8,2,13,0.00
2013-4-4,59,38,18,18,12,2,76,41,11,30.73,30.33,3,1,6,0.00
2013-4-5,59,46,35,30,23,19,64,41,22,30.51,30.29,8,2,14,0.00
2013-4-6,44,31,25,26,21,18,75,67,48,30.63,30.52,2,0,3,0.00
2013-4-7,75,65,52,48,40,18,67,40,25,30.38,30.25,8,5,20,0.00
2013-4-8,76,60,47,51,45,40,79,59,31,30.41,30.28,6,2,11,0.00
2013-4-9,70,64,60,52,50,48,72,62,50,30.47,30.34,4,1,7,0.00
2013-4-10,82,70,60,62,56,51,92,61,44,30.35,30.18,8,3,16,0.25
2013-4-11,79,66,56,59,56,52,94,73,49,30.27,29.99,4,2,10,0.00
2013-4-12,67,60,45,59,50,33,94,71,47,30.23,29.91,12,5,19,0.54
2013-4-13,60,47,38,35,33,31,76,59,38,30.36,30.22,7,3,13,0.00
2013-4-14,64,48,33,38,31,26,79,53,31,30.52,30.38,5,2,11,0.00
2013-4-15,67,61,55,49,44,35,66,53,41,30.48,30.35,10,5,17,0.00
2013-4-16,82,66,57,58,53,48,94,65,40,30.57,30.41,11,4,16,0.70
2013-4-17,58,54,53,57,52,48,95,92,85,30.61,30.51,2,1,4,0.01
2013-4-18,86,73,62,61,57,53,79,59,37,30.49,30.19,9,6,14,0.00
2013-4-19,74,60,44,59,48,30,85,65,52,30.23,29.90,11,5,17,0.12
2013-4-20,44,38,36,32,29,28,80,70,56,30.36,30.23,7,4,16,0.00
2013-4-21,45,34,26,26,24,21,82,66,43,30.93,30.74,2,1,6,0.00
2013-4-22,70,54,42,31,26,16,49,35,14,30.81,30.64,6,4,14,0.00
2013-4-23,52,44,39,35,32,30,72,64,51,30.64,30.56,5,2,9,0.00
2013-4-24,73,56,39,56,44,33,90,66,46,30.55,30.15,12,4,24,0.35
2013-4-25,63,48,34,38,33,26,90,60,30,30.71,30.54,7,2,17,0.00
2013-4-26,42,38,36,36,34,32,87,84,80,30.77,30.70,1,0,2,0.00
2013-4-27,59,43,36,38,33,28,81,68,45,30.74,30.71,0,0,2,0.00
2013-4-28,60,57,54,52,48,39,87,73,45,30.53,30.33,8,5,17,0.14
2013-4-29,64,58,54,52,49,46,79,73,65,30.36,30.32,4,2,9,0.00
2013-4-30,80,64,55,56,52,49,86,66,40,30.57,30.40,7,3,9,0.00
2013-5-1,58,55,53,49,47,46,77,74,68,30.66,30.56,4,2,9,0.00
2013-5-2,84,67,52,41,33,19,55,31,10,30.72,30.58,6,2,9,0.00
2013-5-3,66,57,50,38,34,30,51,43,35,30.63,30.59,4,2,12,0.00
2013-5-4,57,50,45,41,37,33,68,59,53,30.58,30.56,4,1,5,0.00
2013-5-5,80,63,48,40,31,16,69,37,10,30.52,30.40,6,2,11,0.00
2013-5-6,61,52,46,41,38,36,70,59,48,31.22,30.43,3,2,8,0.00
2013-5-7,62,58,56,56,53,52,89,83,76,30.40,30.36,2,0,4,0.02
2013-5-8,61,57,52,56,52,50,93,84,70,30.37,30.29,4,2,8,0.22
2013-5-9,84,64,52,60,54,50,95,72,35,30.37,30.28,4,1,8,0.19
2013-5-10,70,62,59,56,54,53,79,76,74,30.38,30.34,3,2,6,0.00
2013-5-11,63,57,52,59,53,46,96,86,75,30.22,30.16,3,2,12,0.30
2013-5-12,58,49,40,48,32,26,86,55,38,30.31,30.20,8,4,20,0.00
2013-5-13,64,49,30,32,25,16,73,40,24,30.52,30.41,6,3,14,0.00
2013-5-14,50,38,31,37,30,25,84,72,54,30.55,30.52,2,1,6,0.00
2013-5-15,65,61,57,54,48,38,69,63,49,30.27,30.19,7,4,14,0.00
2013-5-16,74,66,62,63,60,57,93,82,58,30.26,30.17,4,2,9,0.26
2013-5-17,88,71,59,62,57,48,95,65,25,30.48,30.36,3,1,6,0.00
2013-5-18,93,76,55,62,56,49,82,52,29,30.51,30.41,5,1,8,0.00
2013-5-19,81,72,60,64,60,56,87,69,54,30.49,30.38,5,2,12,0.00
2013-5-20,92,76,62,68,63,58,88,67,43,30.43,30.31,6,2,11,0.00
2013-5-21,76,70,67,68,66,64,92,85,77,30.36,30.32,4,2,7,0.00
2013-5-22,74,70,67,63,62,60,79,75,65,30.30,30.23,4,2,9,0.00
2013-5-23,78,70,62,65,62,60,94,78,57,30.25,30.19,6,3,12,0.25
2013-5-24,52,45,42,50,42,38,93,91,87,30.48,30.26,6,3,11,0.08
2013-5-25,59,48,32,40,36,29,93,65,43,30.66,30.62,5,2,12,0.00
2013-5-26,74,55,37,41,35,31,87,52,24,30.64,30.57,4,1,8,0.00
2013-5-27,65,56,40,49,43,35,87,63,45,30.63,30.48,4,1,6,0.00
2013-5-28,81,70,54,68,62,48,94,76,62,30.47,30.40,6,2,13,0.39
2013-5-29,73,69,68,60,59,58,73,70,64,30.47,30.40,4,3,11,0.00
2013-5-30,93,79,66,69,63,59,79,60,36,30.58,30.48,4,1,8,0.00
2013-5-31,92,79,66,69,64,62,89,63,40,30.52,30.38,5,2,11,0.00
2013-6-1,90,78,67,67,65,61,88,65,46,30.41,30.23,5,3,12,0.01
2013-6-2,83,75,68,67,63,59,89,68,47,30.26,30.19,8,2,15,0.02
2013-6-3,70,64,54,64,55,42,89,72,54,30.43,30.25,3,1,8,0.00
2013-6-4,84,62,42,49,44,38,88,55,26,30.54,30.43,2,0,5,0.00
2013-6-5,66,58,50,50,48,46,84,70,55,30.51,30.48,2,0,8,0.00
2013-6-6,75,66,64,66,62,56,94,87,66,30.33,30.18,7,4,13,0.72
2013-6-7,68,64,60,64,61,56,96,91,81,30.22,30.13,4,1,8,0.02
2013-6-8,62,57,56,58,53,52,86,86,84,30.30,30.23,3,1,5,0.00
2013-6-9,94,81,57,65,61,53,90,53,35,30.55,30.41,3,1,9,0.00
2013-6-10,79,72,68,70,67,64,91,85,74,30.41,30.18,5,3,15,0.44
2013-6-11,81,69,64,68,63,58,93,82,54,30.28,30.18,6,2,11,0.04
2013-6-12,70,66,65,68,62,62,92,89,81,30.27,30.25,2,1,4,0.00
2013-6-13,75,69,62,70,63,55,98,83,69,30.17,29.95,8,3,13,2.21
2013-6-14,68,59,56,56,55,51,90,86,80,30.31,30.17,2,0,4,0.00
2013-6-15,83,68,52,59,52,45,94,62,31,30.50,30.39,4,1,8,0.00
2013-6-16,78,68,62,68,62,55,92,81,68,30.40,30.30,4,2,10,0.26
2013-6-17,90,80,66,68,64,54,93,61,38,30.36,30.30,3,1,8,0.00
2013-6-18,70,67,64,62,62,60,91,84,75,30.31,30.26,1,0,2,0.00
2013-6-19,66,60,56,60,54,52,89,81,71,30.44,30.32,2,1,6,0.00
2013-6-20,90,70,51,59,53,48,90,60,28,30.60,30.52,2,0,4,0.00
2013-6-21,86,70,56,65,58,53,90,71,38,30.63,30.59,2,0,4,0.00
2013-6-22,92,78,64,72,66,61,90,68,47,30.59,30.46,3,1,6,0.00
2013-6-23,74,70,68,66,65,59,86,82,76,30.54,30.49,3,1,5,0.00
2013-6-24,99,85,69,71,68,61,88,58,41,30.53,30.40,5,2,11,0.00
2013-6-25,81,72,69,68,67,61,90,85,76,30.44,30.38,3,2,8,0.00
2013-6-26,88,74,65,71,67,64,99,82,49,30.37,30.22,5,2,8,1.29
2013-6-27,81,72,69,74,68,66,96,88,70,30.21,30.05,3,1,10,0.64
2013-6-28,71,68,65,69,67,63,99,97,90,30.06,29.98,4,1,8,0.00
2013-6-29,89,74,60,68,64,59,98,73,49,30.09,29.94,7,2,14,0.14
2013-6-30,67,64,62,66,63,61,97,96,94,30.15,30.08,0,0,2,0.00
2013-7-1,90,74,67,70,67,64,94,80,52,30.34,30.21,2,0,4,0.38
2013-7-2,77,71,67,70,68,66,97,91,80,30.40,30.33,2,0,4,0.11
2013-7-3,76,73,70,68,66,65,83,79,75,30.53,30.45,3,2,8,0.00
2013-7-4,101,84,70,72,69,63,90,62,36,30.61,30.50,5,2,11,0.01
2013-7-5,76,72,69,70,68,66,97,89,81,30.55,30.52,2,0,5,0.00
2013-7-6,85,76,71,73,70,68,96,83,64,30.57,30.53,3,2,8,0.00
2013-7-7,77,72,69,70,68,65,92,86,79,30.50,30.48,3,1,6,0.00
2013-7-8,78,70,68,68,66,61,97,85,68,30.52,30.45,3,2,8,0.00
2013-7-9,73,69,68,69,68,65,99,98,81,30.50,30.44,4,2,9,0.87
2013-7-10,90,72,66,79,69,64,99,92,64,30.41,30.22,13,2,21,1.72
2013-7-11,66,66,65,66,65,64,98,97,96,30.35,30.28,2,0,3,0.00
2013-7-12,68,62,58,62,58,56,92,88,81,30.44,30.37,0,0,3,0.00
2013-7-13,89,78,63,70,66,60,92,68,50,30.56,30.47,3,1,7,0.00
2013-7-14,76,74,72,68,67,62,83,79,73,30.66,30.60,4,2,7,0.00
2013-7-15,86,77,71,72,69,67,90,78,61,30.73,30.66,2,1,6,0.00
2013-7-16,86,76,71,75,71,69,93,86,70,30.71,30.65,1,0,4,0.00
2013-7-17,99,78,71,78,73,70,99,86,49,30.68,30.55,4,0,8,0.08
2013-7-18,98,82,71,81,74,70,99,80,49,30.57,30.42,2,1,6,0.00
2013-7-19,95,79,73,77,74,69,96,84,51,30.43,30.27,5,2,10,0.01
2013-7-20,88,75,72,78,70,68,91,84,69,30.32,30.26,4,2,7,0.01
2013-7-21,91,75,69,72,69,67,94,82,54,30.37,30.30,4,1,7,0.04
2013-7-22,82,74,66,73,70,64,97,87,74,30.34,30.29,2,0,4,0.00
2013-7-23,72,70,66,68,67,61,99,91,82,30.18,30.13,3,1,9,0.01
2013-7-24,67,64,62,65,59,54,97,82,68,30.28,30.14,2,1,6,0.01
2013-7-26,56,55,54,54,53,52,95,94,94,28.85,28.84,0,0,1,0.00
2013-7-27,77,67,62,70,64,57,97,88,76,30.38,30.25,4,1,6,0.45
2013-7-28,83,70,60,67,61,55,97,76,43,30.41,30.25,5,2,9,0.26
2013-7-29,77,66,55,58,55,52,89,70,48,30.56,30.42,4,2,6,0.00
2013-7-30,87,70,55,61,57,53,95,69,40,30.61,30.53,2,0,4,0.00
2013-7-31,85,70,58,68,62,56,93,79,52,30.54,30.35,2,0,5,0.01
2013-8-1,88,73,66,69,64,60,98,78,40,30.34,30.25,3,1,6,0.06
2013-8-2,86,75,60,66,59,52,97,60,38,30.38,30.29,5,2,16,0.00
2013-8-3,80,71,64,69,65,60,96,83,65,30.37,30.31,4,2,11,0.18
2013-8-4,60,58,55,59,57,55,99,97,90,30.42,30.36,0,0,1,0.02
2013-8-5,83,66,53,59,54,52,97,69,40,30.51,30.40,2,0,4,0.00
2013-8-6,68,59,55,63,56,53,93,89,80,30.41,30.38,0,0,2,0.00
2013-8-7,75,68,64,68,64,60,91,85,77,30.37,30.35,2,1,6,0.00
2013-8-8,77,70,66,71,67,65,96,90,82,30.37,30.34,2,1,6,0.01
2013-8-9,79,73,72,74,72,67,99,96,91,30.31,30.28,2,1,7,0.11
2013-8-10,85,76,63,68,64,61,97,69,51,30.48,30.40,2,0,5,0.00
2013-8-11,95,80,62,70,65,58,94,62,45,30.51,30.41,2,0,7,0.00
2013-8-12,78,70,66,70,68,66,99,93,71,30.45,30.42,2,0,4,0.00
2013-8-13,72,68,66,67,66,64,96,93,84,30.27,30.19,4,2,8,0.01
2013-8-14,62,56,50,52,50,48,93,82,72,30.43,30.35,2,1,7,0.00
2013-8-15,77,60,48,59,52,46,96,77,35,30.57,30.51,3,0,8,0.00
2013-8-16,72,58,52,60,54,49,93,85,59,30.52,30.48,0,0,2,0.00
2013-8-17,83,69,55,61,55,50,92,65,35,30.62,30.55,4,1,8,0.00
2013-8-18,65,64,63,59,58,57,84,81,74,30.59,30.54,2,0,4,0.00
2013-8-19,90,75,65,69,66,63,98,78,46,30.52,30.45,2,0,6,0.26
2013-8-20,70,64,59,67,62,58,99,95,83,30.57,30.48,2,0,4,0.00
2013-8-21,95,75,58,70,63,57,95,71,37,30.57,30.44,3,1,6,0.00
2013-8-22,87,78,66,72,69,64,98,75,60,30.49,30.38,4,2,18,0.09
2013-8-23,93,78,67,70,66,59,99,70,34,30.47,30.40,3,0,8,0.89
2013-8-24,84,73,56,65,60,54,93,66,49,30.67,30.52,2,0,5,0.00
2013-8-25,88,79,58,66,62,54,90,58,41,30.74,30.62,4,2,11,0.00
2013-8-26,67,63,61,61,60,59,93,91,83,30.63,30.58,3,2,8,0.00
2013-8-27,81,75,70,72,69,66,93,82,72,30.41,30.38,3,1,7,0.00
2013-8-28,73,71,70,72,70,69,99,99,96,30.34,30.27,3,1,5,0.77
2013-8-29,77,72,70,72,70,69,99,97,88,30.40,30.30,0,0,2,0.00
2013-8-30,74,69,65,69,67,64,99,94,82,30.40,30.38,0,0,1,0.00
2013-8-31,93,83,70,73,71,68,96,68,49,30.26,30.17,4,2,11,0.00
2013-9-1,86,74,70,73,70,68,96,88,66,30.25,30.18,4,2,7,0.00
2013-9-2,71,70,69,69,68,67,98,95,89,30.20,30.18,3,2,5,0.00
2013-9-3,79,67,58,65,59,54,99,77,44,30.42,30.21,4,1,9,0.01
2013-9-4,57,54,52,57,54,52,99,98,90,30.50,30.41,3,1,7,0.00
2013-9-6,87,70,46,52,47,40,94,48,21,30.64,30.50,2,0,4,0.00
2013-9-7,87,74,47,57,54,45,96,51,31,30.50,30.34,3,1,8,0.00
2013-9-8,88,75,63,70,64,58,86,70,55,30.36,30.30,3,1,7,0.00
2013-9-9,76,64,57,65,59,55,93,84,71,30.48,30.43,3,1,9,0.00
2013-9-10,74,72,70,69,68,67,92,89,86,30.50,30.43,4,3,9,0.00
2013-9-11,79,75,73,73,72,71,94,91,84,30.54,30.50,4,2,9,0.00
2013-9-12,80,74,68,72,70,65,99,88,75,30.40,30.22,6,2,17,0.27
2013-9-13,62,60,57,61,57,56,97,92,85,30.26,30.19,2,1,5,0.02
2013-9-14,59,54,50,47,45,41,88,74,57,30.52,30.40,2,1,5,0.00
2013-9-15,50,46,43,46,44,42,95,92,86,30.54,30.50,0,0,2,0.00
2013-9-16,67,58,55,59,56,54,99,93,72,30.56,30.44,2,0,3,0.33
2013-9-17,60,49,45,51,47,44,97,92,75,30.74,30.66,0,0,4,0.00
2013-9-18,64,51,46,49,43,39,84,75,57,30.63,30.59,2,0,4,0.00
2013-9-19,65,61,60,63,59,54,97,93,80,30.52,30.48,2,0,4,0.00
2013-9-20,69,64,59,65,61,58,94,91,85,30.42,30.37,2,1,5,0.00
2013-9-21,72,67,60,66,63,59,98,89,80,30.22,30.07,6,2,17,1.20
2013-9-22,72,60,54,58,50,46,99,72,45,30.38,30.17,4,1,10,0.01
2013-9-23,63,54,44,49,45,41,93,74,52,30.51,30.39,2,0,5,0.00
2013-9-24,85,51,37,51,43,36,99,80,26,30.48,30.33,2,0,4,0.00
2013-9-25,58,49,45,52,46,43,95,92,80,30.34,30.29,0,0,2,0.00
2013-9-26,64,51,47,57,49,46,96,93,79,30.38,30.31,0,0,2,0.00
2013-9-27,63,51,48,58,49,46,95,93,80,30.53,30.44,0,0,1,0.00
2013-9-28,74,60,49,61,53,48,97,81,52,30.63,30.56,4,1,8,0.00
2013-9-29,86,73,53,58,54,47,82,54,37,30.52,30.38,2,1,8,0.00
2013-9-30,74,62,53,62,56,50,92,81,67,30.43,30.36,3,1,5,0.00
2013-10-1,66,61,60,61,59,58,96,95,83,30.45,30.39,3,2,6,0.00
2013-10-2,64,61,59,61,59,58,97,93,87,30.47,30.42,4,2,7,0.00
2013-10-3,86,71,61,67,64,61,99,81,53,30.48,30.40,5,1,9,0.04
2013-10-4,86,73,64,70,68,62,99,84,57,30.50,30.42,3,2,10,0.00
2013-10-5,94,76,64,71,67,61,96,76,50,30.48,30.37,5,1,15,0.01
2013-10-6,78,72,68,67,65,63,93,80,66,30.37,30.31,3,1,7,0.00
2013-10-7,72,59,46,60,48,40,99,67,48,30.34,30.09,7,3,20,0.35
2013-10-8,79,57,41,52,45,40,99,68,32,30.66,30.49,1,0,6,0.00
2013-10-9,76,56,41,50,42,39,94,64,31,30.68,30.60,2,0,4,0.00
2013-10-10,79,55,46,49,44,39,85,68,34,30.58,30.46,1,0,3,0.00
2013-10-11,59,55,52,57,52,47,98,92,78,30.46,30.42,2,0,4,0.79
2013-10-12,56,54,54,54,53,52,97,96,92,30.47,30.42,0,0,3,0.00
2013-10-13,79,67,58,65,59,55,92,76,61,30.63,30.55,4,2,8,0.11
2013-10-14,65,61,57,62,59,55,97,93,88,30.66,30.59,1,0,4,0.26
2013-10-15,61,54,50,60,54,50,99,99,96,30.58,30.51,1,0,5,0.00
2013-10-16,69,60,55,65,56,51,94,87,74,30.35,30.25,4,2,9,0.26
2013-10-17,63,57,55,61,55,52,96,92,88,30.28,30.26,2,0,5,0.04
2013-10-18,55,48,45,48,45,42,94,91,84,30.38,30.26,3,2,8,0.00
2013-10-19,59,48,39,47,43,37,95,83,73,30.34,30.16,2,1,5,0.00
2013-10-20,69,55,37,46,39,33,99,57,40,30.39,28.53,6,2,15,0.01
2013-10-21,58,47,40,40,37,34,81,70,49,28.59,28.56,3,1,10,0.00
2013-10-22,60,48,40,48,37,29,94,68,31,28.50,28.37,6,2,12,0.18
2013-10-23,47,41,37,44,38,32,92,88,77,28.39,28.29,5,1,14,0.17
2013-10-24,44,37,35,39,34,28,95,88,77,28.55,28.45,3,1,9,0.00
2013-10-25,35,33,30,34,32,29,97,96,92,28.82,28.66,2,2,6,0.00
2013-10-26,54,45,31,31,28,25,91,54,38,28.76,28.43,8,4,14,0.00
2013-10-27,61,49,35,38,33,28,88,56,38,28.61,28.50,6,2,15,0.00
2013-10-28,64,43,32,42,35,28,93,75,42,28.77,28.62,2,0,6,0.00
2013-10-29,48,38,33,43,35,31,94,90,74,28.89,28.80,0,0,1,0.00
2013-10-30,49,45,44,44,40,38,86,82,76,28.77,28.69,2,0,2,0.00
2013-10-31,66,62,58,59,58,55,94,86,76,28.63,28.48,5,3,10,0.01
2013-11-1,71,60,51,57,50,42,92,71,42,28.26,27.92,14,4,30,0.11
2013-11-2,54,50,49,46,43,38,83,78,70,28.28,28.21,2,0,9,0.00
2013-11-3,59,44,32,42,33,24,91,66,34,28.95,28.48,4,1,7,0.00
2013-11-4,52,38,27,26,23,20,82,57,29,29.05,28.93,3,1,6,0.00
2013-11-5,45,41,37,30,28,25,65,60,54,29.02,28.94,2,0,4,0.00
2013-11-6,62,51,44,49,41,28,81,71,52,28.86,28.73,3,1,8,0.00
2013-11-7,59,47,43,57,41,29,99,82,61,28.58,28.40,7,3,16,0.52
2013-11-8,45,38,35,32,30,29,80,73,61,28.76,28.60,5,3,13,0.00
2013-11-9,62,48,28,38,28,21,85,50,26,28.79,28.49,8,3,17,0.00
2013-11-10,53,46,40,38,31,22,70,57,42,28.73,28.49,8,5,21,0.00
2013-11-11,42,36,32,33,30,27,85,78,66,28.79,28.73,5,2,14,0.00
2013-11-12,46,35,28,34,24,12,98,66,41,28.90,28.60,3,1,11,0.18
2013-11-13,44,32,21,25,22,19,93,69,39,29.01,28.88,6,2,12,0.00
2013-11-14,29,27,27,22,21,21,80,78,77,28.87,28.83,4,3,10,0.00
2013-11-15,52,42,39,23,21,19,44,43,39,28.74,28.70,4,3,10,0.00
2013-11-16,73,58,43,52,46,37,89,65,51,28.76,28.64,6,2,11,0.00
2013-11-17,64,59,54,60,53,47,92,82,72,28.57,28.10,10,4,17,0.41
2013-11-18,65,55,46,51,36,25,80,51,35,28.38,28.18,8,5,22,0.00
2013-11-19,38,35,27,27,25,19,81,65,58,28.90,28.57,7,2,16,0.00
2013-11-20,47,29,23,27,22,19,86,77,48,28.97,28.89,1,0,6,0.00
2013-11-21,64,44,33,42,30,18,67,57,36,28.94,28.76,5,1,8,0.00
2013-11-22,58,51,37,54,50,32,99,95,68,28.75,28.58,9,2,15,0.27
2013-11-23,38,33,31,32,27,21,83,77,72,28.76,28.74,4,2,11,0.00
2013-11-24,33,22,16,16,10,2,77,60,40,29.01,28.82,8,5,18,0.00
2013-11-25,44,29,14,15,9,1,79,46,24,28.98,28.73,5,2,11,0.00
2013-11-26,37,34,31,35,33,28,98,95,84,28.73,28.40,3,0,6,0.43
2013-11-27,33,30,24,33,26,17,99,88,73,28.46,28.22,2,0,4,0.01
2013-11-28,42,28,16,19,17,11,81,63,42,28.88,28.63,3,1,9,0.01
2013-11-29,50,36,24,26,21,18,82,55,35,29.10,28.91,2,0,6,0.08
2013-11-30,48,36,24,27,22,16,79,58,45,29.10,28.79,4,3,11,0.00
2013-12-1,50,43,33,33,30,22,70,60,54,28.72,28.50,4,2,10,0.00
2013-12-2,61,46,38,40,34,29,73,64,43,28.49,28.35,2,1,8,0.00
2013-12-3,68,45,37,48,39,36,97,83,41,28.43,28.37,2,0,4,0.02
2013-12-4,67,49,40,49,41,35,84,75,53,28.52,28.42,4,1,6,0.00
2013-12-5,67,58,41,60,52,41,99,82,67,28.57,28.41,5,2,12,0.74
2013-12-6,40,35,32,39,34,31,99,94,86,28.69,28.58,1,0,7,0.41
2013-12-7,44,30,25,28,23,15,99,75,48,29.01,28.76,4,0,8,0.01
2013-12-8,21,20,17,16,15,12,83,80,78,29.06,28.93,0,0,0,0.00
2013-12-9,46,37,33,42,35,30,99,91,74,28.60,28.48,5,2,14,0.15
2013-12-10,42,28,22,28,19,8,94,71,42,28.75,28.53,5,3,14,0.04
2013-12-11,35,26,18,16,14,12,80,62,50,28.84,28.74,4,3,14,0.00
2013-12-12,28,28,28,20,20,20,73,73,73,28.93,28.92,4,4,8,0.00
2013-12-13,47,35,19,22,16,6,61,46,40,30.29,28.71,5,3,11,0.00
2013-12-14,41,34,29,38,31,19,98,91,53,31.81,31.32,6,2,13,0.34
2013-12-15,44,29,26,43,26,22,99,87,76,31.48,31.23,8,0,14,0.02
2013-12-16,29,24,18,22,17,11,87,75,64,31.74,31.61,8,1,12,0.00
2013-12-17,43,34,25,34,29,23,99,84,60,31.61,31.52,4,1,9,0.08
2013-12-18,36,28,26,27,23,17,88,80,70,31.74,31.62,5,2,14,0.00
2013-12-19,65,49,28,37,30,18,77,48,41,31.70,31.63,7,4,18,0.00
2013-12-20,60,53,46,57,44,27,92,74,40,31.62,31.51,5,3,17,0.07
2013-12-21,68,58,52,64,56,49,99,95,77,31.52,31.40,4,2,13,0.71
2013-12-22,69,60,57,60,54,48,98,81,67,31.54,31.20,10,4,23,0.24
2013-12-23,50,37,31,47,33,20,99,86,65,31.86,30.39,7,3,16,0.15
2013-12-24,30,28,27,24,21,19,88,74,64,31.85,31.80,0,0,0,0.00
2013-12-25,37,23,11,20,13,7,87,66,48,32.05,31.85,3,1,6,0.00
2013-12-26,45,34,26,30,21,14,72,58,44,31.85,31.78,9,2,23,0.02
2013-12-27,44,35,33,41,26,22,91,68,63,31.94,31.36,3,2,10,0.13
2013-12-28,62,49,33,36,28,12,64,45,35,31.85,31.72,6,3,14,0.00
2013-12-29,45,41,38,40,36,24,98,86,44,31.64,31.26,5,1,9,0.46
2013-12-30,40,28,22,38,23,16,96,82,69,31.76,31.44,8,0,11,0.01
2013-12-31,26,24,23,23,19,14,93,79,63,31.86,31.65,0,0,0,0.00
2014-1-1,45,35,25,31,24,19,79,66,55,31.89,31.76,2,0,8,0.00
2014-1-2,34,29,25,27,26,22,97,88,83,31.62,31.25,1,0,4,0.00